Location: Palo Duro Canyon State Park
(34.9073°N, 101.6424°W)
Time: 23:40:31
(UTC-06:00)

Envisat - Visible Passes

Search period start: 13 November 2019 00:00
Search period end: 23 November 2019 00:00
Orbit: 764 x 766 km, 98.1° (Epoch: 13 November)

Date Brightness Start Highest point End Pass type
(mag) Time Alt. Az. Time Alt. Az. Time Alt. Az.
13 Nov 3.4 18:18:59 10° SE 18:23:41 40° ENE 18:28:24 10° N visible
13 Nov 5.6 19:59:12 10° SW 20:02:48 20° W 20:06:26 10° NW visible
14 Nov 6.0 06:32:10 10° NE 06:35:36 18° E 06:39:00 10° SE visible
14 Nov 4.1 19:21:00 10° S 19:25:51 46° W 19:30:44 10° NNW visible
15 Nov 2.9 18:44:02 10° SSE 18:49:05 74° ENE 18:54:09 10° N visible
16 Nov 3.7 18:08:03 10° SE 18:12:29 31° ENE 18:16:56 10° N visible
16 Nov 5.2 19:47:20 10° SSW 19:51:27 25° W 19:55:37 10° NW visible
17 Nov 6.2 06:21:41 10° ENE 06:24:13 14° E 06:26:45 10° ESE visible
17 Nov 3.5 19:09:33 10° S 19:14:33 60° W 19:19:35 10° NNW visible
18 Nov 3.0 18:32:53 10° SSE 18:37:50 57° ENE 18:42:49 10° N visible
18 Nov 6.0 20:14:43 10° WSW 20:17:10 13° W 20:19:37 10° WNW visible
19 Nov 5.6 06:45:44 10° NE 06:49:56 26° E 06:54:06 10° SSE visible
19 Nov 4.7 19:35:37 10° SSW 19:40:08 32° W 19:44:40 10° NW visible
20 Nov 6.6 06:12:17 10° E 06:12:50 10° E 06:13:24 10° E visible
20 Nov 3.1 18:58:12 10° S 19:03:17 78° WSW 19:08:23 10° NNW visible
21 Nov 3.3 18:21:50 10° SE 18:26:37 44° ENE 18:31:25 10° N visible
21 Nov 5.7 20:02:26 10° SW 20:05:47 18° W 20:09:09 10° NW visible
22 Nov 5.9 06:34:53 10° NE 06:38:35 20° E 06:42:14 10° SE visible
22 Nov 4.2 19:24:02 10° S 19:28:49 42° W 19:33:37 10° NNW visible
